User: anonymous   Login
Location: Fort Wayne
(41.1310°N, 85.1290°W)
Time: 13:04:08
(UTC-05:00)
Language:

Meteor 2-10 Rocket - Orbit

View from above orbital plane
View from above orbital plane
View from above satellite
View from above satellite

Ground track
Ground track

The orbit data is extracted from the following two-line orbital elements,

1 14453U 83109B   17057.00096348  .00000031  00000-0  73821-5 0  9998
2 14453  81.1657 218.1481 0105370  25.8703 334.7690 14.24667581731695
Epoch (UTC): 26 February 2017 00:01:23
Eccentricity: 0.0105370
inclination: 81.1657°
perigee height: 734 km
apogee height: 885 km
right ascension of ascending node: 218.1481°
argument of perigee: 25.8703°
revolutions per day: 14.24667581
mean anomaly at epoch: 334.7690°
orbit number at epoch: 73169

The dashed part of the orbit path shows where the satellite is in the earth's shadow,  

DLR